Radiation Dose at Monitoring Post of Fukushima Daini Nuclear Power Station
Date,Time,MP-1(microSv/h),MP-2(microSv/h),MP-3(microSv/h),MP-4(microSv/h),MP-5(microSv/h),MP-6(microSv/h),MP-7(microSv/h),Wind Direction,Wind Velocity(m/s),Rain
2015/12/12,00:00,0.445,0.262,0.469,0.424,0.416,0.214,0.186,north,6.4,No
2015/12/12,00:10,0.447,0.263,0.470,0.427,0.413,0.213,0.185,north-northwest,6.6,No
2015/12/12,00:20,0.444,0.263,0.466,0.428,0.415,0.214,0.186,north,6.1,No
2015/12/12,00:30,0.445,0.262,0.469,0.425,0.415,0.214,0.186,north-northwest,5.5,No
2015/12/12,00:40,0.444,0.263,0.467,0.428,0.416,0.214,0.185,north-northwest,5.0,No
2015/12/12,00:50,0.444,0.263,0.468,0.425,0.417,0.215,0.185,north-northwest,4.5,No
2015/12/12,01:00,0.446,0.263,0.471,0.426,0.414,0.214,0.185,north,4.1,No
2015/12/12,01:10,0.443,0.264,0.470,0.426,0.415,0.215,0.185,north-northwest,5.2,No
2015/12/12,01:20,0.445,0.264,0.471,0.424,0.415,0.214,0.185,north,5.2,No
2015/12/12,01:30,0.445,0.263,0.469,0.427,0.413,0.215,0.186,north,6.2,No
2015/12/12,01:40,0.444,0.264,0.467,0.426,0.415,0.213,0.185,north,6.4,No
2015/12/12,01:50,0.446,0.263,0.470,0.425,0.414,0.214,0.186,north,5.8,No
2015/12/12,02:00,0.445,0.263,0.467,0.429,0.414,0.213,0.185,north,6.0,No
2015/12/12,02:10,0.444,0.264,0.470,0.425,0.415,0.213,0.185,north,5.6,No
2015/12/12,02:20,0.447,0.262,0.468,0.426,0.415,0.214,0.185,north,5.7,No
2015/12/12,02:30,0.444,0.264,0.468,0.425,0.412,0.214,0.186,north,6.3,No
2015/12/12,02:40,0.448,0.263,0.470,0.425,0.416,0.215,0.187,north,6.0,No
2015/12/12,02:50,0.443,0.262,0.467,0.427,0.413,0.214,0.185,north,6.5,No
2015/12/12,03:00,0.445,0.263,0.470,0.424,0.414,0.214,0.185,north,7.3,No
2015/12/12,03:10,0.448,0.263,0.469,0.427,0.414,0.214,0.186,north,7.5,No
2015/12/12,03:20,0.445,0.263,0.469,0.427,0.413,0.214,0.186,north,7.1,No
2015/12/12,03:30,0.445,0.264,0.470,0.424,0.415,0.215,0.186,north,8.7,Yes
2015/12/12,03:40,0.445,0.262,0.469,0.426,0.416,0.214,0.186,north,9.5,Yes
2015/12/12,03:50,0.444,0.264,0.470,0.427,0.416,0.214,0.185,north,8.6,No
2015/12/12,04:00,0.448,0.264,0.470,0.426,0.415,0.214,0.186,north,7.8,No
2015/12/12,04:10,0.446,0.262,0.469,0.427,0.415,0.215,0.186,north,7.8,No
2015/12/12,04:20,0.447,0.264,0.471,0.425,0.416,0.213,0.186,north,7.6,No
2015/12/12,04:30,0.448,0.264,0.469,0.425,0.415,0.214,0.185,north,8.1,No
2015/12/12,04:40,0.444,0.263,0.469,0.427,0.416,0.215,0.184,north,9.5,No
2015/12/12,04:50,0.448,0.265,0.471,0.425,0.416,0.214,0.186,north,12.2,No
2015/12/12,05:00,0.448,0.263,0.468,0.426,0.415,0.215,0.186,north,10.9,No
2015/12/12,05:10,0.445,0.262,0.469,0.427,0.416,0.214,0.186,north,9.5,No
2015/12/12,05:20,0.449,0.265,0.471,0.427,0.414,0.214,0.186,north,9.5,No
2015/12/12,05:30,0.446,0.263,0.469,0.426,0.415,0.213,0.186,north,9.0,No
2015/12/12,05:40,0.445,0.264,0.470,0.427,0.416,0.214,0.186,north,9.8,No
2015/12/12,05:50,0.448,0.264,0.471,0.425,0.414,0.215,0.185,north,9.6,No
2015/12/12,06:00,0.447,0.265,0.470,0.425,0.415,0.215,0.185,north,10.0,No
2015/12/12,06:10,0.446,0.264,0.470,0.426,0.416,0.214,0.186,north-northwest,9.3,No
2015/12/12,06:20,0.447,0.263,0.472,0.426,0.413,0.214,0.186,north,9.6,No
2015/12/12,06:30,0.446,0.264,0.471,0.426,0.413,0.214,0.186,north,10.1,No
2015/12/12,06:40,0.446,0.264,0.467,0.429,0.415,0.215,0.185,north,9.6,No
2015/12/12,06:50,0.448,0.263,0.470,0.427,0.414,0.214,0.186,north-northwest,9.5,No
2015/12/12,07:00,0.447,0.263,0.469,0.425,0.414,0.214,0.186,north-northwest,10.0,No
2015/12/12,07:10,0.446,0.262,0.468,0.425,0.415,0.214,0.185,north-northwest,9.2,No
2015/12/12,07:20,0.448,0.264,0.473,0.426,0.414,0.214,0.186,north-northwest,8.9,No
2015/12/12,07:30,0.446,0.264,0.470,0.426,0.415,0.215,0.186,north-northwest,9.2,No
2015/12/12,07:40,0.446,0.264,0.470,0.427,0.413,0.214,0.186,north-northwest,7.9,No
2015/12/12,07:50,0.447,0.264,0.471,0.427,0.416,0.215,0.186,north-northwest,8.2,No
2015/12/12,08:00,0.447,0.262,0.468,0.424,0.415,0.214,0.186,north-northwest,8.7,No
2015/12/12,08:10,0.446,0.264,0.470,0.427,0.416,0.216,0.185,north-northwest,7.4,No
2015/12/12,08:20,0.448,0.264,0.470,0.425,0.415,0.215,0.184,north-northwest,6.4,No
2015/12/12,08:30,0.445,0.264,0.470,0.426,0.414,0.216,0.185,north-northwest,6.8,No
2015/12/12,08:40,0.448,0.265,0.469,0.428,0.415,0.214,0.185,north,7.0,No
2015/12/12,08:50,0.448,0.263,0.471,0.426,0.416,0.214,0.185,north,7.3,No
2015/12/12,09:00,0.445,0.264,0.467,0.427,0.414,0.215,0.185,north,6.6,No
2015/12/12,09:10,0.447,0.265,0.470,0.425,0.414,0.216,0.186,north-northwest,6.4,No
2015/12/12,09:20,0.447,0.264,0.471,0.426,0.416,0.215,0.186,north,7.6,No
2015/12/12,09:30,0.446,0.265,0.469,0.424,0.414,0.215,0.187,north-northwest,6.2,No
2015/12/12,09:40,0.450,0.264,0.472,0.426,0.416,0.215,0.186,north-northwest,5.7,No
2015/12/12,09:50,0.446,0.264,0.469,0.427,0.414,0.215,0.187,north-northwest,5.5,No
2015/12/12,10:00,0.448,0.264,0.468,0.425,0.416,0.216,0.186,north,4.7,No
2015/12/12,10:10,0.446,0.263,0.472,0.428,0.415,0.215,0.187,north-northwest,5.7,No
2015/12/12,10:20,0.446,0.265,0.470,0.426,0.418,0.216,0.186,north,5.4,No
2015/12/12,10:30,0.446,0.263,0.469,0.428,0.416,0.215,0.187,north,6.6,No
2015/12/12,10:40,0.445,0.265,0.471,0.425,0.415,0.216,0.186,north,4.8,No
2015/12/12,10:50,0.446,0.264,0.468,0.430,0.416,0.217,0.188,north-northeast,5.0,No
2015/12/12,11:00,0.446,0.264,0.471,0.425,0.416,0.216,0.187,north-northeast,7.0,No
2015/12/12,11:10,0.449,0.263,0.468,0.429,0.418,0.217,0.187,north-northeast,6.7,No
2015/12/12,11:20,0.447,0.265,0.472,0.427,0.416,0.215,0.188,north-northeast,7.4,No
2015/12/12,11:30,0.450,0.265,0.470,0.430,0.417,0.215,0.187,north-northeast,8.5,No
2015/12/12,11:40,0.447,0.264,0.473,0.425,0.414,0.216,0.188,north-northeast,9.8,No
2015/12/12,11:50,0.448,0.264,0.466,0.430,0.418,0.216,0.187,north,7.4,No
2015/12/12,12:00,0.448,0.265,0.471,0.428,0.415,0.216,0.188,north-northeast,7.6,No
2015/12/12,12:10,0.448,0.266,0.469,0.428,0.420,0.215,0.188,north-northeast,7.4,No
2015/12/12,12:20,0.447,0.263,0.473,0.430,0.416,0.215,0.188,north-northeast,7.7,No
2015/12/12,12:30,0.447,0.266,0.468,0.426,0.419,0.216,0.188,north-northeast,6.1,No
2015/12/12,12:40,0.448,0.265,0.473,0.430,0.415,0.216,0.188,north-northeast,6.6,No
2015/12/12,12:50,0.447,0.264,0.467,0.427,0.420,0.216,0.189,north-northeast,5.3,No
2015/12/12,13:00,0.449,0.266,0.472,0.432,0.418,0.217,0.188,northeast,5.6,No
2015/12/12,13:10,0.446,0.264,0.468,0.428,0.419,0.216,0.188,north-northeast,4.4,No
2015/12/12,13:20,0.449,0.265,0.471,0.431,0.419,0.216,0.189,north-northeast,4.1,No
2015/12/12,13:30,0.447,0.263,0.469,0.430,0.417,0.216,0.187,north-northeast,3.5,No
2015/12/12,13:40,0.449,0.265,0.471,0.431,0.419,0.217,0.190,north-northeast,3.5,No
2015/12/12,13:50,0.448,0.264,0.472,0.427,0.417,0.217,0.187,north-northeast,3.8,No
2015/12/12,14:00,0.449,0.265,0.471,0.431,0.418,0.217,0.189,north-northeast,3.8,No
2015/12/12,14:10,0.451,0.265,0.472,0.428,0.418,0.217,0.188,north-northeast,3.0,No
2015/12/12,14:20,0.448,0.266,0.474,0.432,0.416,0.216,0.189,northeast,2.1,No
2015/12/12,14:30,0.450,0.265,0.470,0.429,0.419,0.217,0.189,northeast,2.4,No
2015/12/12,14:40,0.450,0.264,0.475,0.432,0.416,0.215,0.188,northeast,2.1,No
2015/12/12,14:50,0.449,0.266,0.471,0.429,0.419,0.215,0.189,north-northeast,2.6,No
2015/12/12,15:00,0.452,0.264,0.473,0.431,0.418,0.216,0.189,north-northeast,2.6,No
2015/12/12,15:10,0.449,0.266,0.472,0.429,0.415,0.218,0.188,north-northeast,1.7,No
2015/12/12,15:20,0.450,0.266,0.471,0.430,0.419,0.216,0.188,northeast,0.8,No
2015/12/12,15:30,0.449,0.264,0.472,0.432,0.418,0.217,0.189,north-northeast,1.6,No
2015/12/12,15:40,0.447,0.266,0.472,0.429,0.416,0.216,0.189,north-northeast,1.3,No
2015/12/12,15:50,0.450,0.265,0.475,0.431,0.417,0.217,0.188,north-northeast,1.3,No
2015/12/12,16:00,0.448,0.265,0.473,0.432,0.417,0.217,0.188,north-northeast,1.0,No
2015/12/12,16:10,0.449,0.265,0.471,0.430,0.418,0.217,0.189,northeast,0.6,No
2015/12/12,16:20,0.451,0.265,0.475,0.432,0.418,0.216,0.190,-,CALM,No
2015/12/12,16:30,0.448,0.265,0.471,0.430,0.417,0.216,0.189,-,CALM,No
2015/12/12,16:40,0.448,0.265,0.473,0.430,0.419,0.216,0.189,north,0.6,No
2015/12/12,16:50,0.450,0.266,0.472,0.431,0.417,0.217,0.189,-,CALM,No
2015/12/12,17:00,0.448,0.265,0.471,0.429,0.415,0.216,0.189,-,CALM,No
2015/12/12,17:10,0.451,0.266,0.475,0.430,0.416,0.216,0.187,-,CALM,No
2015/12/12,17:20,0.450,0.265,0.471,0.431,0.416,0.217,0.190,-,CALM,No
2015/12/12,17:30,0.449,0.265,0.471,0.430,0.416,0.218,0.189,-,CALM,No
2015/12/12,17:40,0.448,0.265,0.475,0.430,0.418,0.218,0.190,-,CALM,No
2015/12/12,17:50,0.451,0.266,0.472,0.431,0.417,0.217,0.190,-,CALM,No
2015/12/12,18:00,0.449,0.266,0.471,0.430,0.416,0.216,0.190,-,CALM,No
2015/12/12,18:10,0.448,0.265,0.476,0.429,0.417,0.217,0.189,northwest,0.6,No
2015/12/12,18:20,0.451,0.265,0.472,0.431,0.418,0.216,0.190,north-northwest,0.8,No
2015/12/12,18:30,0.449,0.267,0.473,0.432,0.417,0.216,0.189,north-northwest,0.8,No
2015/12/12,18:40,0.448,0.266,0.474,0.430,0.417,0.217,0.190,northwest,1.0,No
2015/12/12,18:50,0.451,0.266,0.473,0.430,0.417,0.217,0.189,northwest,0.8,No
2015/12/12,19:00,0.450,0.265,0.472,0.431,0.417,0.217,0.190,north-northwest,0.7,No
2015/12/12,19:10,0.449,0.267,0.474,0.429,0.416,0.218,0.189,northwest,0.9,No
2015/12/12,19:20,0.450,0.267,0.473,0.429,0.417,0.217,0.189,north-northwest,0.8,No
2015/12/12,19:30,0.450,0.266,0.472,0.431,0.418,0.218,0.188,-,CALM,No
2015/12/12,19:40,0.449,0.265,0.473,0.430,0.417,0.216,0.189,-,CALM,No
2015/12/12,19:50,0.448,0.267,0.474,0.428,0.417,0.217,0.190,-,CALM,No
2015/12/12,20:00,0.451,0.265,0.469,0.431,0.416,0.216,0.189,southwest,1.1,No
2015/12/12,20:10,0.448,0.265,0.472,0.432,0.416,0.217,0.188,southwest,1.7,No
2015/12/12,20:20,0.449,0.267,0.473,0.429,0.416,0.217,0.189,southwest,2.0,No
2015/12/12,20:30,0.451,0.266,0.472,0.430,0.417,0.218,0.190,south-southwest,1.9,No
2015/12/12,20:40,0.450,0.266,0.472,0.431,0.416,0.218,0.190,south-southwest,2.2,No
2015/12/12,20:50,0.448,0.266,0.474,0.430,0.415,0.217,0.189,south-southwest,3.2,No
2015/12/12,21:00,0.451,0.266,0.473,0.430,0.417,0.217,0.190,south-southwest,3.1,No
2015/12/12,21:10,0.450,0.266,0.472,0.430,0.416,0.218,0.190,southwest,3.3,No
2015/12/12,21:20,0.449,0.266,0.474,0.430,0.415,0.217,0.189,south-southwest,3.2,No
2015/12/12,21:30,0.449,0.266,0.475,0.430,0.416,0.217,0.189,south-southwest,2.2,No
2015/12/12,21:40,0.448,0.266,0.471,0.430,0.417,0.218,0.190,south-southwest,3.4,No
2015/12/12,21:50,0.449,0.266,0.474,0.431,0.415,0.218,0.189,south-southwest,3.3,No
2015/12/12,22:00,0.450,0.266,0.474,0.431,0.416,0.218,0.190,south-southwest,3.8,No
2015/12/12,22:10,0.449,0.265,0.472,0.428,0.417,0.218,0.188,south-southwest,4.2,No
2015/12/12,22:20,0.449,0.265,0.475,0.432,0.416,0.218,0.189,south-southwest,4.5,No
2015/12/12,22:30,0.449,0.266,0.475,0.430,0.415,0.216,0.189,south-southwest,5.1,No
2015/12/12,22:40,0.450,0.266,0.473,0.430,0.417,0.217,0.190,south-southwest,5.7,No
2015/12/12,22:50,0.450,0.266,0.471,0.428,0.418,0.217,0.190,south-southwest,5.6,No
2015/12/12,23:00,0.447,0.266,0.474,0.431,0.416,0.216,0.189,south-southwest,5.7,No
2015/12/12,23:10,0.449,0.266,0.474,0.430,0.416,0.217,0.189,south-southwest,6.3,No
2015/12/12,23:20,0.450,0.265,0.473,0.430,0.418,0.216,0.190,south-southwest,6.3,No
2015/12/12,23:30,0.448,0.266,0.474,0.432,0.417,0.218,0.189,south-southwest,6.0,No
2015/12/12,23:40,0.448,0.265,0.475,0.429,0.417,0.218,0.191,south-southwest,4.2,No
2015/12/12,23:50,0.450,0.266,0.472,0.430,0.417,0.217,0.188,south-southwest,4.5,No
